Regional Weather Roundup
Issued by NWS

Home | Current Version | Previous Version | Graphics & Text | Print | Product List | Glossary On
Versions: 1 2 3 4 5 6 7 8 9 10 11 12 13 14 15 16 17 18 19 20 21 22 23 24 25 26 27 28 29 30 31 32 33 34 35 36 37 38 39 40 41 42 43 44 45 46 47 48 49 50
000
ASUS43 KDTX 050310
RWRMI
MICHIGAN HOURLY REGIONAL WEATHER ROUNDUP
NATIONAL WEATHER SERVICE DETROIT/PONTIAC MI
1100 PM EDT TUE AUG 04 2015

NOTE: "FAIR" INDICATES FEW OR NO CLOUDS BELOW 12,000 FEET WITH NO
SIGNIFICANT WEATHER AND/OR OBSTRUCTION TO VISIBILITY.

MIZ047>049-052>055-059>063-066>070-074>076-081>083-050400-
SOUTHEAST LOWER MICHIGAN

CITY           SKY/WX    TMP DP  RH WIND       PRES   REMARKS
ADRIAN         PTCLDY    65  56  72 W5        30.02R
ALMA           MOCLDY    56  54  92 CALM      30.01R
ANN ARBOR      CLEAR     59  55  87 W6        30.00R
BAD AXE        PTCLDY    58  57  97 CALM      29.97R FOG
CARO           PTCLDY    60  59  99 CALM      29.97R
DETROIT CITY   CLEAR     72  53  51 W6        29.97R
DETROIT        PTCLDY    69  55  60 W8        29.99R
FLINT          MOCLDY    67  55  65 W7        29.99R
GROSSE ILE     PTCLDY    70  57  64 W3        29.97R
HILLSDALE      PTCLDY    62  59  90 W3        30.03R
HOWELL         CLEAR     63  54  72 W5        30.00R

CITY           SKY/WX    TMP DP  RH WIND       PRES   REMARKS
JACKSON        CLEAR     61  57  87 SW5       30.02R
LAMBERTVILLE   PTCLDY    65  58  80 CALM      30.00R
LANSING        CLEAR     64  54  69 NW5       30.02R
LAPEER         MOCLDY    64  60  89 CALM      29.99R
MASON          CLEAR     63  54  72 CALM      30.01R
MONROE         CLEAR     65  57  75 W3        29.99R
MT. CLEMENS    MOCLDY    67  62  85 NW3       29.96R
PONTIAC        PTCLDY    67  56  67 W8        29.99R
PORT HOPE        N/A     60  58  92 CALM      29.95R
PORT HURON     LGT RAIN  61  61 100 NW3       29.98R
TRI CITIES     PTCLDY    65  56  72 W5        30.00R
MIDLAND        FAIR      60  56  88 CALM      29.99R
TROY           CLEAR     72  54  53 W5        30.00R
SAGINAW HB     CLEAR     63  55  77 NW6       29.99R
$$
MIZ043>046-050>051-056>058-064>065-071>073-077>080-050400-
SOUTHWEST LOWER MICHIGAN

CITY           SKY/WX    TMP DP  RH WIND       PRES   REMARKS
BATTLE CREEK     N/A    N/A N/A N/A MISG      30.03R
BENTON HARBOR  PTCLDY    62  59  90 CALM      30.02R
BIG RAPIDS     CLEAR     59  55  85 CALM      30.02R
COLDWATER      PTCLDY    63  56  78 SW3       30.03R
FREMONT        FAIR      59  57  92 CALM      30.01R
HOLLAND        CLEAR     62  58  86 CALM      30.03R
GRAND RAPIDS   FAIR      65  54  67 W6        30.02R
IONIA          FAIR      63  54  72 CALM      30.01R
KALAMAZOO      PTCLDY    65  55  70 CALM      30.03R
LUDINGTON      CLEAR     60  57  91 CALM      30.02R
MARSHALL       PTCLDY    61  57  85 CALM      30.02R
MOUNT PLEASANT CLEAR     61  56  82 CALM      30.01R
MUSKEGON       CLOUDY    66  58  75 CALM      30.01R
SOUTH HAVEN    PTCLDY    60  58  91 CALM      30.02R
$$
MIZ016>042-050400-
NORTHERN LOWER MICHIGAN

CITY           SKY/WX    TMP DP  RH WIND       PRES   REMARKS
ALPENA         CLEAR     60  50  69 NW5       29.98R
BEAVER ISLAND  CLEAR     59  49  70 NW8       30.00S
BELLAIRE       PTCLDY    62  55  79 NW3       30.00R
CADILLAC       CLEAR     58  55  89 CALM      30.02R
CHARLEVOIX     CLOUDY    62  53  72 NW12      30.03R
FRANKFORT      MOCLDY    60  58  94 CALM      30.01R
GAYLORD        LGT RAIN  61  56  83 NW9       30.00R
GRAYLING       MOCLDY    57  54  88 W3        30.01R
HARBOR SPRINGS CLEAR     58  51  78 CALM      29.99S
HOUGHTON LAKE  CLEAR     59  52  77 NW5       30.01R
MANISTEE       CLEAR     59  54  82 CALM      30.02R
OSCODA         CLEAR     58  56  96 CALM      29.96R
PELLSTON       CLEAR     54  50  86 CALM      29.99S
ROGERS CITY    CLEAR     61  50  67 NW9       29.99R
TRAVERSE CITY  PTCLDY    60  55  83 CALM      29.99R
$$
MIZ007>008-015-050400-
EASTERN UPPER MICHIGAN

CITY           SKY/WX    TMP DP  RH WIND       PRES   REMARKS
KINROSS        CLEAR     54  48  82 NW9       29.98S
MACKINAC ISLAN CLEAR     56  46  69 NW8       29.99R
NEWBERRY       CLEAR     50  47  90 W6        30.00S
S. S. MARIE    CLEAR     55  50  83 W6        29.97S
$$
MIZ004>006-011>014-085-050400-
CENTRAL UPPER MICHIGAN

CITY           SKY/WX    TMP DP  RH WIND       PRES   REMARKS
MANISTIQUE     CLEAR     49  48  95 CALM      30.01R
ESCANABA       CLEAR     57  50  77 N3        30.02R
MENOMINEE      PTCLDY    61  54  77 NE5       30.01R
SAWYER-GWINN   CLEAR     50  48  92 CALM      30.04R
$$
MIZ001>003-009>011-084-050400-
WESTERN UPPER MICHIGAN

CITY           SKY/WX    TMP DP  RH WIND       PRES   REMARKS
IRON MOUNTAIN  CLEAR     55  50  83 N5        30.03R
HOUGHTON       CLEAR     52  48  86 NW7       30.03R
COPPER HARBOR    N/A     59  51  75 N8        30.01R
IRONWOOD       CLEAR     52  50  93 CALM      30.03R
$$

ABBREVIATIONS USED IN REMARKS
   TC - TEMPERATURE IN CELSIUS
  WCI - WIND CHILL INDEX
   HX - HEAT INDEX
  VSB - VISIBILITY




USA.gov is the U.S. government's official web portal to all federal, state and local government web resources and services.